Weather History for KHQM - October, 2012

Change the Weather History Date:

Friday, October 12, 2012

  Actual Average Record
Temperature  
Mean Temperature 52 °F 53 °F  
Max Temperature 54 °F 60 °F 78 °F (1987)
Min Temperature 51 °F 46 °F 36 °F (1981)
Degree Days  
Heating Degree Days 12 12  
Month to date heating degree days 126  
Cooling Degree Days 0 0  
Month to date cooling degree days 0  
Year to date cooling degree days 23  
Growing Degree Days 2 (Base 50)    
Moisture  
Dew Point 51 °F    
Average Humidity 94    
Maximum Humidity 100    
Minimum Humidity 82    
Precipitation  
Precipitation 0.26 in 0.18 in 1.36 in (1962)
Month to date precipitation 1.79  
Year to date precipitation 41.68  
Sea Level Pressure  
Sea Level Pressure 29.91 in    
Wind  
Wind Speed 11 mph (SE)    
Max Wind Speed 28 mph    
Max Gust Speed 39 mph    
Visibility 4 miles    
Events Rain    
T = Trace of Precipitation, MM = Missing Value Source: NWS Daily Summary

Daily Weather History Graph

Daily Weather History Graph

Search for Another Location

Airport or City:

Trip Planner

Search our weather history database for the weather conditions in past years. The results will help you decide how hot, cold, wet, or windy it might be!

Date:

Astronomy

Oct. 12, 2012 Rise Set
Actual Time 7:30 AM PDT 6:32 PM PDT
Civil Twilight 6:59 AM PDT 7:03 PM PDT
Nautical Twilight 6:24 AM PDT 7:38 PM PDT
Astronomical Twilight 5:49 AM PDT 8:13 PM PDT
Moon 4:09 AM PDT (10/12) 4:53 PM PDT (10/12)
Length of Visible Light 12h 03m
Length of Day
11h 02m
Waning Crescent, 10% of the Moon is Illuminated
Oct 12
Waning Crescent
Oct 15
New
Oct 21
First Quarter
Oct 29
Full
Nov 6
Last Quarter

Hourly Weather History & Observations

Time (PDT) Temp. Dew Point Humidity Pressure Visibility Wind Dir Wind Speed Gust Speed Precip Events Conditions
12:53 AM 51.8 °F 46.4 °F 82% 29.85 in 10.0 mi ESE 5.8 mph - N/A   Overcast
1:53 AM 52.0 °F 48.0 °F 86% 29.86 in 10.0 mi SE 8.1 mph - N/A   Overcast
2:53 AM 52.0 °F 48.0 °F 86% 29.86 in 10.0 mi ESE 6.9 mph - N/A   Overcast
3:36 AM 51.8 °F 48.2 °F 88% 29.85 in 10.0 mi ESE 4.6 mph - N/A   Overcast
3:53 AM 52.0 °F 48.0 °F 86% 29.86 in 10.0 mi SE 5.8 mph - 0.00 in Rain Light Rain
4:53 AM 51.1 °F 48.9 °F 92% 29.87 in 9.0 mi SE 3.5 mph - 0.04 in Rain Light Rain
5:32 AM 51.8 °F 50.0 °F 94% 29.85 in 2.0 mi ESE 6.9 mph - 0.02 in Rain Light Rain
5:41 AM 51.8 °F 50.0 °F 94% 29.86 in 2.5 mi SE 6.9 mph - 0.03 in Rain Light Rain
5:49 AM 51.8 °F 50.0 °F 94% 29.86 in 3.0 mi SE 5.8 mph - 0.04 in Rain Light Rain
5:53 AM 51.1 °F 50.0 °F 96% 29.87 in 2.5 mi SE 5.8 mph - 0.04 in Rain Light Rain
6:01 AM 51.8 °F 50.0 °F 94% 29.86 in 6.0 mi SE 8.1 mph - 0.00 in Rain Light Rain
6:53 AM 51.8 °F 50.0 °F 94% 29.86 in 4.0 mi SE 8.1 mph - N/A   Overcast
7:33 AM 51.8 °F 50.0 °F 94% 29.87 in 5.0 mi SSE 11.5 mph - N/A   Overcast
7:53 AM 52.0 °F 50.0 °F 93% 29.88 in 2.0 mi SSE 11.5 mph - 0.00 in Rain Light Rain
8:19 AM 51.8 °F 51.8 °F 100% 29.88 in 1.8 mi SSE 5.8 mph - 0.01 in Rain Light Rain
8:36 AM 51.8 °F 51.8 °F 100% 29.88 in 1.2 mi SE 6.9 mph - 0.03 in Rain Light Rain
8:53 AM 51.8 °F 51.8 °F 100% 29.88 in 1.2 mi SE 10.4 mph - N/A Rain Light Rain
9:12 AM 51.8 °F 51.8 °F 100% 29.89 in 3.0 mi ESE 4.6 mph - 0.01 in Rain Light Rain
9:19 AM 51.8 °F 51.8 °F 100% 29.89 in 2.5 mi East 5.8 mph - 0.02 in Rain Light Rain
9:31 AM 51.8 °F 51.8 °F 100% 29.89 in 1.5 mi ESE 5.8 mph - N/A Rain Light Rain
9:53 AM 52.0 °F 51.1 °F 97% 29.90 in 1.5 mi East 8.1 mph - 0.07 in Rain Rain
10:51 AM 53.6 °F 51.8 °F 94% 29.91 in 3.0 mi East 6.9 mph - 0.05 in Rain Light Rain
10:52 AM 53.1 °F 52.0 °F 96% 29.92 in 3.0 mi East 6.9 mph - 0.05 in Rain Light Rain
10:59 AM 53.6 °F 51.8 °F 94% 29.91 in 2.0 mi ENE 5.8 mph - 0.01 in Rain Light Rain
11:05 AM 53.6 °F 51.8 °F 94% 29.91 in 1.2 mi East 5.8 mph - 0.03 in Rain Rain
11:30 AM 53.6 °F 51.8 °F 94% 29.91 in 2.0 mi East 4.6 mph - 0.05 in   Overcast
11:53 AM 53.1 °F 52.0 °F 96% 29.93 in 2.5 mi SE 4.6 mph - 0.05 in Rain Light Rain
12:53 PM 53.6 °F 51.8 °F 94% 29.92 in 3.0 mi SE 6.9 mph - N/A   Overcast
1:53 PM 54.0 °F 51.1 °F 90% 29.92 in 9.0 mi SSE 19.6 mph 27.6 mph N/A   Overcast
2:53 PM 53.6 °F 51.8 °F 94% 29.90 in 5.0 mi SSE 25.3 mph 35.7 mph N/A   Overcast
3:12 PM 53.6 °F 51.8 °F 94% 29.90 in 4.0 mi South 26.5 mph 36.8 mph N/A   Overcast
3:53 PM 54.0 °F 51.1 °F 90% 29.91 in 4.0 mi South 27.6 mph 39.1 mph 0.00 in   Overcast
4:53 PM 54.0 °F 51.1 °F 90% 29.92 in 4.0 mi South 25.3 mph 34.5 mph N/A   Overcast
5:25 PM 53.6 °F 51.8 °F 94% 29.91 in 3.0 mi SSE 26.5 mph 35.7 mph N/A   Overcast
5:33 PM 53.6 °F 51.8 °F 94% 29.91 in 2.0 mi South 23.0 mph 35.7 mph N/A   Overcast
5:44 PM 53.6 °F 51.8 °F 94% 29.91 in 4.0 mi SSE 26.5 mph 34.5 mph N/A   Overcast
5:50 PM 53.6 °F 51.8 °F 94% 29.91 in 2.5 mi SSE 27.6 mph 38.0 mph N/A   Overcast
5:51 PM 53.1 °F 51.1 °F 93% 29.92 in 2.5 mi SSE 26.5 mph 38.0 mph N/A   Overcast
6:07 PM 53.6 °F 51.8 °F 94% 29.92 in 3.0 mi South 25.3 mph 36.8 mph N/A   Overcast
6:49 PM 53.6 °F 51.8 °F 94% 29.92 in 6.0 mi South 21.9 mph 34.5 mph 0.02 in   Overcast
6:53 PM 53.6 °F 51.8 °F 94% 29.92 in 6.0 mi South 25.3 mph 36.8 mph N/A   Overcast
7:53 PM 53.1 °F 51.1 °F 93% 29.95 in 5.0 mi South 27.6 mph 33.4 mph 0.00 in   Overcast
8:40 PM 53.6 °F 51.8 °F 94% 29.94 in 7.0 mi South 18.4 mph 28.8 mph N/A   Overcast
8:53 PM 53.1 °F 51.1 °F 93% 29.96 in 6.0 mi South 21.9 mph 28.8 mph N/A   Overcast
9:33 PM 53.6 °F 51.8 °F 94% 29.97 in 10.0 mi South 18.4 mph 28.8 mph 0.00 in   Overcast
9:53 PM 54.0 °F 51.1 °F 90% 29.99 in 10.0 mi South 24.2 mph 28.8 mph 0.00 in   Overcast
10:15 PM 53.6 °F 51.8 °F 94% 29.99 in 4.0 mi South 20.7 mph - 0.00 in Rain Light Rain
10:53 PM 54.0 °F 52.0 °F 93% 29.99 in 6.0 mi SSE 21.9 mph 28.8 mph 0.00 in   Overcast
11:53 PM 54.0 °F 52.0 °F 93% 30.01 in 4.0 mi SSE 20.7 mph - 0.01 in Rain Light Rain